Zurück zum Katalog

STARLINK-34841

AktivKommunikationVLEO
NORAD 65208·PAYLOAD·🇺🇸 United States

Gestartet Aug 14, 2025 von Cape Canaveral Space Force Station

Loading…

Nächste Überflüge (nächste 24 Stunden)

TLE

AktuellSource: CelesTrak SupGP

Epoche: Sep 15, 2026, 03:54 UTC

1 65208C 25176L   26258.16298611  .00064485  00000+0  19060-2 0  2581
2 65208  53.1592 348.4831 0001409 100.7769  69.8130 15.34345385    12

Verfolge STARLINK-34841 in Echtzeit mit AllMySat

Download on the App Store